Dewpoint
48 47 44 46 46 47 46 48 49 49 50 48 46 46 47 47 47 47 47 47 49 49 48 47 50 53 50 45 43 50 53 51 44 40 36 29 27 25 26 27 23 24 26 27 28 26 24
48 45 44 46 46 45 45 46 48 49 48 48 47 46 46 46 46 47 48 49 50 50 48 48 49 52 47 40 50 52 53 46 38 37 33 32 26 27 26 25 25 28 26 24 22 22 21
48 45 43 43 43 43 44 46 48 49 48 48 47 47 47 46 46 46 45 47 48 48 48 48 49 50 44 45 52 51 45 39 37 35 32 30 29 27 26 25 25 23 19 22 22 22 22
47 45 45 44 45 45 44 44 46 47 48 49 47 46 46 45 45 47 47 46 47 48 49 48 49 47 43 52 51 47 44 36 35 34 31 31 30 28 27 26 22 21 18 16 22 22 26
46 45 46 45 45 45 45 45 44 45 46 47 48 47 47 47 46 46 46 46 47 46 48 47 45 44 41 51 46 48 48 35 32 31 30 31 28 25 25 23 20 19 22 18 21 24 26
47 45 45 45 46 46 46 45 45 45 45 45 45 45 45 45 46 49 45 45 43 43 43 43 44 40 41 43 46 46 39 35 32 29 26 26 27 23 23 27 8 18 17 20 18 25 26
49 47 45 44 45 45 45 48 45 45 46 45 46 46 44 44 47 47 45 42 39 38 40 39 40 39 42 45 46 40 36 32 31 27 18 30 23 18 22 22 22 21 20 21 24 28 26
49 50 48 47 46 46 47 48 48 46 45 46 45 46 43 45 45 44 43 40 41 40 34 39 40 42 44 45 38 34 34 28 27 24 24 27 23 23 25 25 24 23 22 25 29 30 29
50 49 49 49 48 48 49 48 49 48 46 46 46 45 45 45 45 44 42 42 47 41 33 36 40 39 41 41 35 34 37 29 26 23 26 25 25 26 27 28 26 25 24 27 27 30 31
49 47 49 48 48 48 48 48 50 49 49 46 46 45 44 44 40 42 41 45 47 47 28 30 35 39 40 40 34 37 37 34 26 25 27 26 27 26 28 28 28 25 28 28 30 28 20
50 48 49 49 49 49 49 48 48 50 50 48 45 45 43 43 41 40 43 46 47 44 15 33 36 43 41 35 34 29 37 35 25 28 28 26 25 26 28 29 28 29 31 30 30 28 26
50 49 48 49 49 49 50 49 49 50 51 51 45 45 45 44 43 44 46 45 42 24 18 31 37 36 36 35 33 31 34 35 33 30 29 29 30 30 31 30 30 32 31 31 29 28 23
48 50 48 49 49 49 49 50 50 50 51 50 46 43 42 43 39 45 43 40 24 21 32 30 32 34 30 30 30 31 30 30 29 24 27 30 30 32 32 31 32 30 28 24 23 23 19
48 48 48 48 49 49 50 49 50 49 49 48 44 42 41 42 44 43 40 33 22 30 31 36 33 30 28 28 29 30 29 27 29 31 29 25 20 32 32 32 31 31 30 25 19 22 23
46 47 47 47 49 49 49 50 49 50 48 43 44 42 42 43 44 43 35 28 26 29 31 31 31 27 27 29 30 29 29 29 30 31 27 28 28 34 32 32 33 31 29 33 27 27 24
45 47 47 47 49 49 49 49 50 49 46 43 41 41 41 44 44 41 30 28 29 30 29 28 24 25 25 28 28 28 28 31 31 32 33 31 27 32 33 35 34 34 33 28 28 21 19
46 46 47 47 48 49 49 49 49 49 47 44 40 37 43 44 43 35 30 29 31 33 34 30 26 25 25 26 27 27 28 31 33 33 34 32 30 31 34 32 31 31 29 29 27 25 20
47 45 46 47 48 49 49 49 49 49 45 40 42 31 43 44 33 35 31 33 33 32 33 31 32 31 28 27 27 29 30 32 35 35 32 32 31 28 28 33 33 31 28 28 23 25 25
48 47 45 47 48 49 49 50 49 48 48 41 37 37 45 45 30 31 33 32 33 32 31 31 31 32 31 29 28 29 31 34 35 34 33 32 30 24 25 26 28 28 29 29 26 26 22
48 47 45 46 48 49 49 50 49 48 49 43 38 27 38 36 36 32 31 31 30 33 31 30 30 31 30 27 28 29 31 33 35 35 35 33 30 26 20 22 26 26 27 28 27 23 21
48 47 47 44 46 48 48 49 48 47 49 42 36 30 35 29 29 31 31 30 29 30 31 30 28 27 27 24 24 26 29 31 34 36 34 33 28 28 28 28 28 26 25 25 27 25 22
49 47 47 46 44 48 48 50 48 46 47 37 34 33 34 29 30 29 29 29 30 30 30 28 27 27 26 25 27 26 26 26 28 33 32 32 23 28 25 25 25 24 24 24 23 26 25
49 48 47 46 44 46 48 50 49 46 44 37 39 36 33 28 28 27 27 29 30 32 32 30 30 29 27 29 30 30 32 31 30 28 28 29 27 24 14 24 23 9 15 21 22 23 24
49 49 47 46 46 44 48 50 49 47 44 42 39 38 33 25 26 26 28 28 28 29 30 31 30 29 32 33 32 32 32 31 30 30 29 27 26 25 21 23 1 5 18 19 19 20 23
50 49 48 46 46 45 46 49 49 47 45 40 40 39 33 27 25 27 27 27 28 29 28 29 31 32 33 31 25 20 25 25 27 29 29 29 27 23 20 20 16 12 19 16 16 10 20
51 49 49 47 46 46 45 47 49 47 46 42 39 41 39 30 23 26 25 27 25 25 28 29 31 33 33 29 23 16 9 13 17 25 25 28 29 25 24 18 1 4 15 22 20 2 14
52 51 49 48 47 46 45 45 48 48 46 41 39 40 40 35 33 27 22 27 30 28 24 27 29 32 32 27 22 17 13 19 9 14 21 26 27 25 25 23 21 22 18 23 0 -10 17
52 52 50 49 48 46 45 45 47 48 46 41 40 38 36 34 34 33 31 29 30 29 20 27 25 30 30 23 22 18 18 17 17 17 21 17 20 23 25 23 11 23 23 12 7 21 20
51 52 52 49 48 46 45 45 44 47 46 44 37 40 38 33 30 37 35 34 33 33 32 32 26 29 29 27 24 22 19 19 17 8 16 13 18 19 22 18 22 24 19 22 21 19 20
Wind_Speed
23 25 26 29 28 31 33 31 26 18 20 13 7 10 9 8 8 7 5 3 8 11 8 4 4 8 2 5 2 8 13 4 1 3 5 3 5 4 9 6 5 5 4 6 6 4 1
23 25 26 27 28 29 31 33 27 20 16 11 13 14 12 10 9 10 10 7 7 9 7 5 1 3 1 8 6 9 12 4 4 2 1 5 3 3 8 7 4 5 9 8 4 2 2
23 24 26 26 27 28 29 30 28 23 22 19 15 13 12 10 10 11 14 16 8 9 8 5 2 2 1 6 7 6 9 1 2 2 6 7 5 5 4 7 3 6 5 0 2 3 1
21 23 24 24 24 26 26 28 28 23 21 21 16 14 13 12 11 11 12 14 10 8 8 6 5 1 5 5 8 10 12 13 15 11 10 11 11 8 5 5 4 4 3 2 2 3 1
20 21 22 24 25 25 25 24 23 22 22 19 15 15 13 12 12 10 12 12 10 7 7 3 6 5 5 7 4 4 4 9 14 13 10 9 8 4 4 7 5 1 3 4 0 5 0
18 17 18 19 21 21 23 23 20 20 17 16 15 13 12 12 10 7 12 15 21 11 11 10 9 6 5 3 4 5 4 8 7 8 6 5 4 4 3 3 6 5 4 2 2 4 3
17 15 14 16 18 21 23 21 19 17 16 13 16 15 11 9 11 20 15 8 6 8 13 7 10 7 7 5 10 0 3 3 5 1 4 2 7 7 8 6 3 3 5 4 1 4 4
17 14 13 13 13 15 18 20 14 15 13 11 9 14 11 11 9 5 4 6 4 4 10 20 18 12 6 1 7 3 7 2 1 8 5 6 8 6 8 8 6 5 3 2 2 3 4
18 16 15 15 15 17 18 18 16 11 11 9 8 9 9 7 9 17 13 7 5 6 8 9 8 6 5 7 7 4 8 2 6 6 6 8 5 5 7 6 4 4 3 4 3 9 4
18 17 16 15 16 16 18 17 16 13 10 11 10 10 6 4 8 2 4 1 2 2 6 10 9 7 7 10 6 4 6 2 3 12 11 8 1 6 7 5 3 5 6 5 5 9 3
17 17 17 17 18 17 17 16 14 13 11 9 9 8 2 2 10 3 5 3 6 2 7 8 5 5 7 5 4 4 4 3 5 6 3 2 5 4 4 2 2 3 3 4 5 5 6
18 17 18 19 20 19 18 16 13 11 9 7 4 3 4 5 4 3 3 3 2 3 10 4 1 5 5 1 1 2 2 2 2 13 15 6 2 2 2 5 5 3 4 2 1 3 3
16 18 19 21 21 21 19 17 14 10 7 4 4 4 3 2 4 2 4 4 4 11 1 4 5 4 9 8 8 5 3 3 3 5 6 3 3 2 1 6 5 3 3 1 1 3 4
17 18 19 21 23 22 22 19 15 12 6 4 6 3 4 4 5 4 2 3 14 7 7 2 5 8 6 6 2 2 6 3 3 5 6 4 1 4 5 2 5 2 1 1 3 2 3
17 17 18 21 23 24 23 21 17 11 4 5 7 2 2 4 5 2 1 12 6 4 7 10 6 3 2 1 3 2 4 3 3 4 4 5 0 2 6 3 5 3 2 1 1 3 3
16 16 18 21 24 25 24 23 20 12 4 9 2 2 1 6 8 3 7 8 6 3 2 6 1 2 4 4 3 4 2 1 2 3 4 4 6 7 4 2 4 2 6 2 2 2 4
17 16 17 19 24 26 26 26 24 17 4 11 1 2 1 7 2 8 9 6 5 5 4 2 5 6 4 4 7 4 3 2 4 3 2 1 3 3 8 9 13 7 4 5 2 2 2
17 17 17 19 22 25 26 26 25 20 6 7 1 5 5 7 6 4 4 1 0 2 3 3 5 8 3 1 5 4 4 3 5 6 2 2 2 6 11 7 10 9 8 8 4 5 6
16 18 17 18 20 23 26 28 27 22 10 2 4 1 4 2 5 4 2 3 3 2 4 5 2 3 1 2 3 4 3 3 4 2 4 3 3 4 1 3 2 6 10 10 4 3 10
14 17 19 19 19 21 25 27 28 27 16 2 4 2 3 4 2 2 3 3 2 1 2 4 2 3 2 0 1 6 4 4 5 1 2 2 3 7 8 2 3 5 9 14 14 7 6
11 15 18 20 20 21 24 27 29 30 23 2 4 3 1 3 4 6 3 4 2 2 3 0 1 5 3 0 2 3 3 3 3 4 1 2 4 5 12 16 14 16 17 16 24 23 14
10 11 16 19 20 21 22 25 29 32 16 6 4 3 1 3 2 4 3 4 5 4 4 3 3 4 4 3 3 2 1 4 3 4 3 2 4 5 12 11 8 15 20 24 25 24 28
9 9 12 16 18 20 21 23 27 31 13 5 3 1 3 1 2 1 0 1 2 1 1 1 1 3 4 3 2 4 5 4 4 4 7 5 2 4 6 9 14 17 15 27 18 18 32
9 9 10 13 17 18 19 21 23 26 14 3 3 1 3 1 1 3 3 2 2 2 2 2 2 2 1 4 7 5 6 8 8 9 6 3 2 2 8 10 4 4 6 10 24 21 30
8 8 9 10 13 16 17 18 19 21 22 7 5 4 1 3 4 4 5 4 3 3 3 4 2 0 3 5 4 4 2 1 4 6 11 7 3 3 4 5 16 10 4 7 9 12 27
7 7 7 8 10 13 15 16 17 18 21 4 6 1 3 2 3 0 4 4 3 3 2 3 0 2 2 1 1 1 3 2 2 1 3 2 5 5 1 4 7 4 3 3 3 14 7
6 8 7 6 7 9 12 13 15 16 18 4 3 5 2 1 3 1 3 2 3 2 2 2 1 1 2 1 1 3 3 1 3 3 5 4 5 17 13 7 14 13 5 4 2 4 4
8 6 8 5 5 7 9 12 13 14 16 6 1 6 3 2 7 2 2 2 0 1 2 1 1 1 1 1 2 2 2 3 3 4 6 12 10 9 7 8 11 10 8 9 5 2 4
7 8 6 6 4 4 6 8 11 12 13 10 2 3 2 3 5 3 5 3 5 4 3 3 3 3 6 2 3 1 3 3 5 6 5 8 11 6 16 13 10 16 9 14 4 7 6
Wind_Direction
25 21 15 17 14 12 16 17 25 54 116 136 124 101 94 88 78 69 79 142 173 149 134 121 72 125 134 96 92 333 318 144 233 345 320 89 150 145 139 123 108 84 118 82 101 65 337
28 24 20 20 20 20 22 23 33 66 87 86 89 91 88 80 76 70 67 72 129 115 119 103 46 181 206 130 321 337 293 182 240 208 337 16 263 102 111 124 90 105 108 120 112 102 276
28 28 24 23 20 25 27 30 39 59 64 70 74 82 83 78 76 78 70 65 71 97 92 90 63 167 96 103 335 11 332 296 337 295 90 21 9 78 82 111 94 103 116 323 216 173 233
32 32 26 26 25 27 31 32 38 48 59 67 61 72 76 77 79 81 84 82 81 71 64 54 35 178 78 338 316 67 336 63 52 50 72 32 46 76 71 111 71 95 83 143 197 169 245
35 36 32 30 29 31 31 36 37 44 50 66 74 73 78 76 68 70 80 72 63 57 23 12 42 34 82 342 61 341 286 98 75 54 42 37 58 80 87 107 77 48 158 185 258 219 178
39 38 34 29 19 21 30 33 35 40 50 57 64 64 68 79 66 39 102 87 66 41 1 92 65 83 17 77 58 315 303 95 88 100 56 50 69 93 83 104 181 175 170 138 200 201 221
29 35 32 25 14 6 8 22 33 40 47 58 58 58 70 76 73 92 109 87 23 24 27 52 76 68 66 51 4 49 204 82 93 257 117 56 98 134 128 93 98 91 104 119 337 123 285
8 22 29 24 11 358 355 2 30 35 53 55 60 55 77 87 58 61 90 77 58 140 55 27 35 55 73 15 100 315 21 22 233 107 114 77 99 93 93 69 76 67 87 61 103 5 306
18 24 22 23 15 8 5 9 19 39 37 50 54 85 93 74 66 54 85 82 44 103 76 23 359 10 332 359 79 15 15 30 130 105 83 99 125 108 83 78 97 80 58 58 21 336 339
18 17 16 17 15 16 9 7 16 30 50 50 76 121 111 27 65 108 71 88 8 314 85 12 15 17 349 344 63 348 348 340 49 116 94 81 109 88 88 75 58 111 26 64 11 19 317
18 11 8 7 10 12 14 10 11 23 41 55 100 127 122 167 139 99 146 211 268 162 73 355 20 326 317 47 153 350 311 359 71 94 93 93 131 117 85 94 44 111 28 5 21 359 8
14 10 4 3 5 10 14 17 13 15 38 46 61 81 94 108 57 120 168 328 16 65 56 44 105 35 88 127 40 227 335 67 88 67 75 99 137 61 62 87 56 16 44 22 103 44 282
11 12 7 3 3 5 11 22 14 18 23 57 105 42 84 38 142 148 30 14 78 57 233 16 75 105 99 104 156 183 125 88 128 125 49 129 109 115 105 124 87 69 50 59 295 232 238
10 12 9 5 3 4 6 15 20 13 39 114 146 120 29 85 105 95 51 17 64 28 65 109 153 136 94 124 22 129 148 88 37 88 132 126 156 183 173 216 164 105 214 227 248 273 287
13 10 9 5 2 3 5 7 16 15 38 119 120 46 101 152 140 126 37 55 99 168 148 159 180 120 99 155 151 227 128 93 50 37 113 126 26 134 187 155 147 157 195 125 254 261 298
14 15 11 4 359 1 5 5 8 15 129 154 96 141 27 153 134 88 62 79 68 100 89 184 246 109 119 167 142 170 130 80 112 18 44 154 112 208 183 58 252 184 156 169 133 339 291
14 12 14 7 0 355 0 6 5 11 141 159 335 44 101 130 108 56 60 71 48 349 345 358 40 124 151 176 187 134 105 156 132 165 336 114 153 152 140 208 181 180 211 206 220 213 266
10 15 12 11 3 357 356 3 7 10 115 141 75 55 170 141 53 55 52 71 134 310 314 336 31 45 86 307 84 64 122 120 129 160 172 204 144 178 208 227 182 188 193 179 174 205 221
5 10 14 11 7 360 357 359 0 6 16 160 81 102 150 312 65 49 87 66 66 40 9 25 48 40 10 69 103 109 104 138 141 191 192 184 200 138 56 331 305 221 211 206 167 135 227
6 6 11 8 10 6 360 358 358 357 357 143 98 90 20 69 86 28 39 78 61 327 8 351 23 333 302 57 167 149 141 178 174 104 115 52 244 222 217 183 130 215 217 212 197 202 230
12 5 9 10 7 9 5 359 359 358 355 108 43 114 199 43 38 15 48 3 63 50 356 264 90 36 24 19 146 115 135 150 184 177 180 174 258 257 263 269 266 256 248 229 214 218 224
6 16 10 11 9 8 8 3 1 1 3 76 105 114 21 143 297 358 49 34 34 17 13 9 83 337 9 123 149 195 14 183 221 189 190 184 281 330 289 291 277 264 250 237 240 234 242
4 6 17 12 12 8 9 11 4 7 19 81 22 76 121 297 342 96 134 173 141 182 271 201 271 327 277 215 250 250 232 251 230 181 200 183 229 349 280 327 318 281 245 226 224 218 223
355 356 11 18 13 12 12 12 12 7 33 73 23 48 106 168 153 165 186 189 214 227 252 252 233 239 227 318 297 268 267 267 245 239 200 177 179 219 284 334 264 232 219 218 213 233 220
345 353 356 15 18 16 13 14 17 12 9 62 26 24 48 190 185 193 194 213 264 242 253 251 270 274 350 333 343 340 335 290 250 229 225 195 167 257 265 274 294 297 201 195 201 276 225
332 336 351 2 18 16 14 12 12 13 12 60 34 102 72 357 265 98 179 202 226 205 241 235 328 33 43 2 9 299 281 298 273 212 21 148 195 202 195 257 255 242 208 173 119 281 205
325 318 333 344 4 17 14 12 11 10 13 41 35 18 78 323 279 350 236 206 169 174 235 240 178 63 59 87 238 233 265 184 243 233 177 167 216 225 233 266 278 258 209 144 233 291 180
321 306 309 317 347 358 11 9 6 7 10 29 45 24 32 272 274 250 213 205 232 168 202 256 330 43 123 200 208 266 241 260 260 223 189 193 184 200 187 223 276 180 132 196 230 256 212
327 319 290 300 304 341 346 11 7 2 6 6 30 344 56 203 264 311 278 244 226 219 181 213 193 165 210 200 220 258 264 252 225 270 195 234 203 198 199 225 241 199 232 225 229 247 247